Probability
0 0 0 0 0 0 0 0 0 0 0 0 0 0 0 0 0 0 0 0 0 2 4 2 0 0 0 0 0 0 0 0 0 0 0 0 0 0 0 0 0 0 0 0 0 0 0 0 0
0 0 0 0 0 0 0 0 0 0 0 0 0 0 0 0 0 0 0 0 0 1 2 1 0 0 0 0 0 0 0 0 0 0 0 0 0 0 0 0 0 0 0 0 0 0 0 0 0
0 0 0 0 0 0 0 0 0 0 0 0 0 0 0 0 0 0 0 0 0 0 0 0 0 0 0 0 0 0 0 0 0 0 0 0 0 0 0 0 0 0 0 0 0 0 0 0 0
0 0 0 0 0 0 0 0 0 0 0 0 0 0 0 0 0 0 0 0 0 0 0 0 0 0 0 0 0 0 0 0 0 0 0 0 0 0 0 0 0 0 0 0 0 0 0 0 0
0 0 0 0 0 0 0 0 0 0 0 0 0 0 0 0 0 0 0 0 0 0 0 0 0 0 0 0 0 0 0 0 0 0 0 0 0 0 1 1 0 0 0 0 0 0 0 0 0
0 0 0 0 0 0 0 0 0 0 0 0 0 0 0 0 0 0 0 0 0 0 0 0 0 0 1 1 0 0 1 1 1 0 0 0 0 1 2 2 1 1 0 0 0 0 0 0 0
0 0 0 0 0 0 0 0 0 0 0 0 0 0 1 5 9 12 12 7 3 1 0 0 1 2 4 6 7 7 6 6 5 4 3 2 2 3 4 4 3 2 1 1 0 0 0 0 0
0 0 0 0 0 0 0 0 0 0 0 0 0 1 8 24 38 44 42 32 21 12 7 5 6 7 8 14 20 21 19 18 18 17 14 9 6 5 6 8 9 6 3 2 1 1 0 0 0
0 0 0 0 0 0 0 0 0 0 0 0 2 3 14 40 62 71 70 64 53 37 27 24 24 21 19 24 34 39 39 41 42 41 39 31 21 13 15 25 33 24 11 5 4 3 1 0 0
0 0 0 0 0 0 0 0 0 0 2 6 9 7 13 32 54 69 76 77 70 56 47 45 44 41 36 39 49 57 61 65 67 69 71 66 54 42 41 58 67 52 26 11 7 6 4 1 1
0 0 0 0 0 0 0 0 1 3 9 18 21 14 12 21 38 57 70 72 66 55 49 48 50 51 49 52 61 68 71 76 79 81 87 89 85 78 77 85 89 75 51 32 26 22 15 8 7
0 0 0 0 0 1 1 0 3 9 17 29 37 33 30 35 48 64 72 68 60 52 44 41 43 45 45 50 57 60 64 69 73 76 83 89 94 96 96 96 95 88 76 63 56 48 35 26 23
0 0 0 0 0 1 1 0 3 10 20 34 49 56 59 63 70 76 77 68 60 56 48 39 35 32 32 38 42 43 47 53 59 65 70 79 89 95 97 97 95 91 86 81 74 62 52 45 40
0 0 0 0 0 1 1 0 2 7 17 31 45 57 64 67 69 71 69 63 58 56 48 35 26 22 23 27 29 29 30 34 41 47 54 63 75 85 91 93 91 87 82 77 69 59 52 47 43
0 0 0 0 0 0 0 0 1 3 9 18 25 31 36 40 43 44 44 43 40 39 34 23 15 14 16 17 18 17 16 19 24 30 36 44 55 68 78 83 83 80 75 67 57 48 41 34 30
0 0 0 0 0 0 0 0 0 1 3 5 7 9 11 14 17 19 20 21 22 22 20 14 8 7 8 9 10 9 8 10 14 17 21 26 36 50 62 70 73 71 66 56 45 36 29 23 18
0 0 0 0 0 0 0 0 0 0 0 0 0 1 2 5 8 9 11 16 20 19 15 11 6 5 5 4 4 4 4 5 8 8 10 15 23 33 45 54 57 58 55 46 35 30 26 20 15
0 0 0 0 0 0 0 0 0 0 0 0 0 0 1 4 7 8 10 14 18 17 12 8 5 4 4 2 2 2 2 3 3 3 3 7 12 19 29 37 41 44 46 39 29 24 22 16 12
0 0 0 0 0 0 0 0 0 0 0 0 0 0 1 2 4 5 6 7 8 7 5 4 3 3 3 2 2 2 3 3 3 2 1 2 5 10 17 25 30 35 37 31 21 16 12 9 7
0 0 0 0 0 0 0 0 0 0 0 0 0 0 1 1 1 1 2 2 2 1 1 1 2 2 2 2 3 3 4 4 3 2 1 0 1 4 10 18 23 25 26 22 16 11 7 3 2
0 0 0 0 0 0 0 0 0 0 0 0 0 0 0 0 0 0 1 1 1 0 0 0 0 0 0 1 1 2 2 3 2 2 1 0 0 1 5 10 14 15 16 15 12 9 5 2 1
0 0 0 0 0 0 0 0 0 0 0 0 0 0 0 0 0 0 0 0 0 0 0 0 0 0 0 0 0 0 1 1 1 1 0 0 0 1 2 5 8 11 11 10 8 6 3 1 0
0 0 0 0 0 0 0 0 1 1 1 0 0 0 0 0 0 0 0 0 0 0 0 0 0 0 0 0 0 0 0 0 0 0 0 0 0 0 1 2 5 8 10 11 11 9 5 2 1
0 0 0 0 0 0 0 2 4 4 2 1 0 0 0 0 0 0 0 0 0 0 0 0 0 0 0 0 0 0 0 0 0 0 0 0 0 0 0 0 2 4 8 14 19 18 13 7 4
0 0 0 0 0 0 1 5 9 6 2 1 0 0 0 0 0 0 0 0 0 0 0 0 0 0 0 0 0 0 0 0 0 0 0 0 0 0 0 0 0 1 3 10 18 23 22 17 13
0 0 0 0 0 0 1 5 7 4 1 0 0 0 0 0 0 0 0 0 0 0 0 0 0 0 0 0 0 0 0 0 0 0 0 0 0 0 0 0 0 0 1 4 10 17 22 25 25
0 0 0 0 0 0 0 2 2 1 0 0 0 0 0 0 0 0 0 0 0 0 0 0 0 0 0 0 0 0 0 0 0 0 0 0 0 0 0 0 0 0 0 1 4 10 16 23 27
0 0 0 0 0 0 0 0 1 0 0 0 0 0 0 0 0 0 0 0 0 0 0 0 0 0 0 0 0 0 0 0 0 0 0 0 0 0 0 0 0 0 0 0 2 5 9 14 18
0 0 0 0 0 0 0 0 0 0 0 0 0 0 0 0 0 0 0 0 0 0 0 0 0 0 0 0 0 0 0 0 0 0 0 0 0 0 1 0 0 0 0 0 0 2 3 6 9
0 0 0 0 0 0 0 0 0 0 0 0 0 0 0 0 0 0 0 0 0 0 0 0 0 0 0 0 0 0 0 0 0 0 0 0 0 0 1 0 0 0 0 0 0 0 0 2 3
Wind_Speed
17 14 8 6 8 6 7 8 7 8 5 5 2 3 6 7 8 7 6 9 13 17 19 20 17 16 15 14 13 12 12 11 11 11 12 11 11 10 10 10 10 9 8 7 7 7 8 7 7
13 10 7 7 8 4 8 8 9 8 5 2 1 3 5 5 6 5 6 10 15 17 18 17 17 16 15 14 13 12 12 11 10 10 10 10 10 9 9 9 9 9 8 7 7 7 7 7 7
11 8 7 7 4 7 8 10 9 6 2 1 2 2 5 6 5 4 8 13 15 16 15 17 17 15 14 13 12 12 11 11 10 10 10 10 9 9 9 9 9 9 9 9 8 7 7 7 7
6 7 7 8 4 7 7 9 8 5 2 1 2 3 5 7 5 7 12 14 15 15 15 18 16 15 14 12 12 11 11 10 10 10 10 10 10 10 10 10 9 9 8 9 9 8 7 7 7
7 7 9 6 3 6 6 8 7 6 5 4 3 4 7 7 8 12 13 13 14 14 13 18 15 14 13 12 12 11 10 10 10 10 10 9 9 10 10 11 11 10 8 8 8 8 7 7 8
6 6 9 6 4 4 6 8 7 7 5 4 3 4 8 8 10 12 12 11 12 13 12 16 14 12 12 11 11 10 10 10 10 10 10 9 9 8 8 9 9 9 8 8 7 8 8 8 9
7 7 8 8 5 2 8 11 10 9 7 7 4 3 9 10 11 13 12 10 11 11 11 12 13 13 12 10 10 10 10 10 10 10 11 11 10 9 9 8 9 9 9 9 9 9 10 10 10
6 7 9 6 5 4 9 10 11 11 8 7 6 5 7 12 13 14 13 11 10 9 9 9 9 10 11 12 12 11 11 12 12 12 12 12 12 12 12 11 12 11 11 11 11 11 12 12 12
6 8 10 6 4 6 10 12 12 7 5 8 10 10 8 15 15 15 14 13 11 10 8 8 9 8 8 8 10 12 12 13 13 14 15 13 12 13 13 15 13 14 13 13 13 13 13 13 14
7 9 7 5 6 8 9 10 12 8 8 11 10 8 8 12 14 14 14 14 13 12 11 9 9 9 8 6 6 7 9 11 12 11 13 12 11 10 10 9 12 14 15 15 15 14 14 14 11
7 9 6 6 7 8 9 6 10 10 9 14 11 4 6 9 10 11 12 12 12 12 10 10 8 7 6 5 5 5 5 7 10 13 12 10 9 8 9 7 9 12 15 14 14 15 13 12 10
8 8 8 9 8 7 7 4 7 14 11 11 9 5 6 7 8 8 10 10 10 9 9 6 4 3 3 4 4 5 5 5 7 9 12 10 7 9 8 7 8 8 8 10 10 8 12 12 12
9 6 5 6 5 2 3 6 9 13 11 11 11 12 10 9 9 9 8 7 5 5 3 2 2 3 4 4 5 6 6 7 8 8 9 11 9 9 9 7 7 10 8 8 9 11 11 12 12
3 5 3 3 5 7 10 10 8 10 10 12 13 13 13 12 12 10 8 7 6 5 5 5 6 7 7 5 5 6 7 7 9 9 11 12 9 9 9 9 9 9 9 9 8 10 10 10 10
6 5 8 7 6 8 7 12 9 8 8 11 12 12 13 13 12 11 10 9 8 7 6 6 6 7 7 7 7 7 7 9 9 9 10 11 10 10 9 8 8 8 8 9 8 10 8 9 10
7 8 7 8 3 3 5 8 8 6 8 10 10 10 11 11 10 9 8 7 6 5 5 5 6 6 7 7 7 7 8 9 8 8 8 10 9 9 8 7 7 7 6 7 7 8 8 8 9
6 2 5 8 6 3 5 9 7 6 8 9 9 9 9 9 9 8 7 6 5 5 5 5 5 6 7 7 7 8 7 7 6 6 6 6 6 6 5 4 5 6 6 6 8 7 7 8 8
1 0 2 6 7 8 11 11 8 7 8 9 8 8 8 9 9 8 8 7 6 6 5 6 5 7 8 6 6 6 6 6 5 5 5 5 3 3 3 3 4 5 5 6 6 6 6 6 6
3 3 2 8 5 7 11 10 8 7 7 8 8 8 8 9 9 8 8 8 8 7 7 7 8 8 7 7 8 8 7 6 5 4 4 4 5 4 3 3 3 4 5 6 7 6 7 7 6
5 4 5 8 6 5 9 10 8 7 7 7 7 7 8 8 8 7 7 7 8 8 8 8 9 9 9 8 7 7 8 7 5 5 5 6 6 5 4 3 4 5 6 7 7 6 6 6 6
5 4 2 8 8 9 11 9 8 9 8 7 6 6 6 5 5 5 6 6 7 8 9 8 9 9 9 10 8 8 7 6 5 6 5 7 7 6 5 5 6 7 7 7 8 8 9 7 7
4 2 1 10 11 8 10 5 9 8 7 6 6 5 4 2 3 4 6 8 9 9 9 9 10 10 9 10 10 11 9 9 9 7 6 7 6 6 6 6 6 7 7 8 9 9 8 9 8
4 2 3 9 9 5 8 5 9 8 6 6 4 3 1 1 4 6 8 9 10 11 10 10 10 10 11 11 11 11 11 10 8 8 8 7 6 5 5 5 5 6 6 8 9 8 9 8 9
1 4 5 9 9 7 3 4 7 6 3 4 4 2 2 3 6 7 9 10 11 11 10 10 10 11 12 12 12 12 13 12 12 11 9 8 6 4 4 4 4 5 5 6 7 8 11 9 9
5 8 7 7 6 1 4 1 6 5 2 1 2 2 3 5 7 9 11 12 12 12 11 11 12 12 13 13 13 13 13 13 13 12 10 8 8 6 4 4 4 4 4 5 6 8 9 10 10
3 7 7 8 7 2 3 2 6 3 1 1 3 3 5 7 9 11 12 12 12 12 11 12 14 14 14 14 13 13 13 12 11 11 11 11 9 8 6 6 5 5 4 5 5 6 8 8 10
2 4 6 8 6 6 3 7 6 4 3 3 4 5 7 9 11 12 13 13 12 13 13 14 15 15 15 15 14 13 13 12 13 13 13 12 10 10 9 9 8 7 6 5 5 5 6 7 8
6 4 4 6 7 8 2 4 4 4 3 3 5 7 9 11 13 14 13 13 13 14 15 15 15 15 15 15 14 12 14 14 13 14 14 14 14 13 12 12 11 10 9 8 7 6 6 6 7
3 3 5 4 6 8 8 4 6 2 3 5 7 9 11 13 15 14 13 14 15 15 15 15 15 16 15 15 15 15 15 15 14 13 14 13 13 14 14 14 14 13 12 11 9 9 8 8 7
5 5 6 6 5 5 8 4 7 1 4 6 9 11 13 14 14 14 15 15 15 16 16 16 16 16 16 15 15 16 15 15 15 15 15 14 14 14 15 15 15 15 15 13 12 12 10 10 10
Wind_Direction
161 169 186 210 234 228 41 39 17 12 19 25 2 305 330 338 343 15 69 139 146 147 143 152 156 159 160 157 153 150 149 148 149 152 155 157 159 160 160 161 162 163 161 157 154 149 140 134 129
165 170 205 234 262 15 48 28 15 14 8 357 309 278 308 7 27 53 110 137 150 148 146 153 151 157 159 158 156 154 153 152 155 158 161 164 166 167 168 168 168 168 168 164 159 155 148 141 136
167 205 251 251 294 12 14 12 7 357 17 318 350 350 357 22 42 70 114 142 150 144 145 139 151 156 158 159 158 157 157 158 162 166 169 172 175 179 180 179 177 178 178 170 162 159 153 149 147
191 221 236 256 332 39 12 5 358 343 39 43 341 71 78 42 33 95 125 147 146 145 151 138 154 155 157 159 160 161 162 164 169 172 176 179 182 186 189 187 185 189 184 170 164 162 158 157 160
237 255 254 261 10 40 26 8 356 349 11 25 1 49 83 71 83 114 134 145 148 152 150 141 155 155 157 160 163 166 169 173 178 180 184 187 190 193 195 193 193 196 187 174 171 173 175 179 180
239 253 272 303 11 27 32 9 352 360 10 25 7 56 86 107 118 126 134 148 148 151 149 136 152 157 159 163 167 171 176 182 187 190 194 198 201 204 205 201 199 199 196 193 193 194 195 197 198
269 276 290 305 325 6 15 359 1 351 13 34 8 48 110 123 125 131 132 139 145 149 145 145 162 166 167 168 175 181 185 190 195 199 201 204 207 211 216 216 215 213 210 209 209 209 208 206 206
272 274 270 280 306 343 6 356 7 358 21 33 5 14 98 131 136 131 128 130 132 139 147 150 168 171 179 179 181 190 197 198 201 206 208 209 211 214 218 222 217 223 222 219 218 216 215 214 213
249 257 272 296 320 332 354 350 357 356 22 46 39 27 72 131 140 139 134 133 137 147 155 159 162 170 185 196 180 195 205 209 210 210 211 214 220 216 209 219 212 219 228 229 227 224 224 223 220
237 262 285 329 316 318 333 347 351 338 18 24 24 50 107 142 152 153 147 145 149 155 161 167 170 173 187 198 192 211 218 212 219 224 213 214 223 233 232 202 207 223 232 236 235 235 233 232 229
239 269 295 284 292 305 311 350 13 357 16 2 350 32 132 148 158 153 148 152 152 159 166 174 175 183 198 204 215 222 233 230 227 229 227 227 227 226 232 224 208 221 228 233 225 225 230 229 231
249 263 274 284 303 303 313 343 45 36 21 5 15 63 113 134 136 142 141 141 150 159 165 170 170 193 241 272 259 245 247 252 253 242 236 232 231 229 227 227 232 227 224 229 238 234 233 235 235
246 271 292 300 307 4 81 80 72 44 33 39 51 62 73 83 95 96 102 114 125 129 128 86 6 338 325 314 303 293 283 274 267 265 252 244 240 236 229 228 230 238 240 232 233 241 241 239 237
289 293 311 36 98 108 101 80 66 42 45 53 59 62 62 63 65 68 67 66 61 54 42 19 356 345 334 324 315 303 290 282 276 270 261 252 247 244 238 232 230 235 240 244 245 247 247 246 246
268 235 132 80 122 143 128 73 52 46 62 63 61 59 56 53 53 50 46 43 40 33 21 358 344 346 339 327 316 301 293 290 285 280 271 257 249 246 242 239 236 237 238 241 244 250 249 247 244
222 209 137 78 78 164 232 78 55 52 71 67 66 67 65 58 56 53 49 44 39 28 14 357 345 343 332 320 311 303 298 295 290 286 276 264 255 248 245 240 242 243 242 238 237 242 242 243 246
195 176 107 98 51 112 91 89 74 67 74 71 66 66 66 65 58 55 51 51 41 33 23 16 360 347 335 322 310 303 302 297 291 292 285 279 274 266 253 245 248 248 243 239 242 234 238 240 240
58 288 103 87 65 90 98 101 88 78 80 76 72 72 70 68 61 56 54 56 53 44 37 25 16 7 343 334 319 311 305 301 299 300 294 289 298 309 286 259 251 249 244 237 236 241 236 246 238
302 283 92 104 106 88 102 101 92 88 90 90 88 85 82 78 74 66 61 57 56 47 37 25 16 10 354 351 339 333 324 315 310 311 327 324 322 326 308 276 266 245 245 245 236 228 226 234 234
246 248 128 122 133 132 124 110 102 94 90 91 97 95 89 87 79 65 55 48 41 35 24 15 13 8 354 354 334 324 320 312 318 325 329 329 321 307 292 271 260 247 244 242 242 229 244 236 222
243 277 149 150 149 156 147 133 130 120 117 114 107 99 89 78 65 48 29 21 17 14 5 0 354 345 347 338 328 333 325 316 330 334 334 337 330 317 294 269 257 253 247 238 233 226 231 240 226
266 5 209 164 183 180 216 177 151 144 141 135 129 121 107 81 34 7 356 355 354 351 347 344 339 334 330 321 327 330 325 328 333 327 333 329 328 328 317 287 264 255 249 246 236 227 232 239 238
5 3 223 199 222 195 205 221 147 166 166 153 152 144 118 356 341 339 339 339 338 336 335 334 333 328 324 317 309 304 309 317 317 321 318 314 315 314 319 311 289 267 257 250 245 237 231 232 242
176 206 198 216 230 223 176 244 146 160 161 162 176 194 263 305 319 327 329 330 329 329 330 331 334 329 325 317 311 301 300 301 303 304 305 302 302 294 292 295 298 287 276 264 253 246 232 237 239
235 254 250 236 237 168 138 229 100 103 108 227 233 240 276 301 313 322 327 330 327 325 326 328 330 328 324 318 314 308 301 295 287 286 290 291 292 288 277 277 276 281 285 282 272 258 252 239 233
334 303 313 311 313 341 164 113 106 108 126 253 260 277 287 303 321 325 328 326 323 321 322 325 326 323 321 319 317 312 304 295 294 296 296 290 283 282 281 258 249 250 256 265 271 271 262 255 243
322 354 346 296 290 290 128 124 138 165 203 233 261 279 295 313 319 321 325 324 323 320 320 321 321 320 320 318 315 306 306 306 303 299 285 279 276 272 260 249 243 237 234 239 247 257 265 268 259
27 355 309 316 325 311 291 177 145 170 242 256 279 296 309 316 319 324 324 323 324 320 319 319 318 318 316 314 315 314 313 306 302 296 296 292 286 277 269 258 249 240 230 223 227 236 241 249 257
29 33 347 330 340 321 322 39 90 39 311 302 305 312 319 322 324 324 322 324 322 320 319 319 318 316 315 315 315 312 308 306 301 295 290 287 283 281 271 260 253 247 238 228 222 232 228 233 240
46 19 351 334 348 315 307 42 111 7 309 302 309 319 324 323 322 322 322 323 321 320 320 318 318 315 314 315 312 309 307 304 301 299 298 294 286 279 272 265 257 251 245 237 230 231 230 229 231